[[{"header":{"parameterUnit":"m.s-1","parameterCategory":1,"la1":30.2992,"la2":30.254,"lo1":-89.0895,"lo2":-89.0443,"dy":0.0025,"dx":0.0025,"nx":19,"ny":19,"refTime":"2026-04-21T03:00:00:Z","depth":0,"parameterNumber":2,"parameterNumberName":"U-component_of_WINDS"},"data":[0,0,0,0.8427,0.8426,0.8397,0.8397,0.8357,0.8356,0,0,0,0,0,0,0,0,0,0,0,0.8435,0.8435,0.8427,0.8426,0.8397,0.8397,0.8357,0.8356,0,0,0,0,0,0,0,0,0,0,0,0.8436,0.8435,0.8435,0.8426,0.8397,0.8397,0.8357,0.8379,0,0,0,0,0,0,0,0,0,0,0.8408,0.8417,0.8435,0.8435,0.8426,0.8397,0.8397,0.8381,0.8378,0.837,0,0.8363,0,0.8359,0.8354,0.8354,0,0,0,0.8425,0.8419,0.8411,0.8435,0.8425,0.8397,0.841,0.8379,0.8376,0.8366,0.8363,0.8361,0.8359,0.8354,0.8353,0.831,0.831,0,0,0.8427,0.843,0.8413,0.8409,0.8416,0.8411,0.8409,0.8377,0.8373,0.8363,0.8361,0.8358,0.8353,0.8353,0.831,0.831,0,0,0,0.8432,0.8431,0.8424,0.8411,0.8406,0.841,0.8408,0.8375,0.8372,0.836,0.8358,0.8353,0.8353,0.831,0.831,0.8304,0,0,0,0.8433,0.8434,0.8425,0.8426,0.8407,0.839,0.8406,0.8375,0.8371,0.8358,0.8353,0.8352,0.831,0.831,0.8304,0.83,0,0,0,0.8437,0.8434,0.843,0.8426,0.8414,0.8391,0.8387,0.8374,0.8369,0.8354,0.8352,0.8311,0.831,0.8305,0.83,0.8288,0,0,0,0.8442,0.8425,0.843,0.841,0.8414,0.8388,0.8387,0.8367,0.8353,0.8353,0.831,0.831,0.8305,0.8301,0.8289,0.8277,0.8273,0,0,0.8422,0.8422,0.841,0.8415,0.8388,0.8392,0.8365,0.8348,0.8344,0.8321,0.832,0.8304,0.83,0.8288,0.8253,0.825,0,0,0,0.8405,0.8396,0.8388,0.8376,0.8364,0.8353,0.8341,0.8335,0.8316,0.8333,0.8297,0.8295,0.8288,0.8282,0.8279,0.8272,0.8308,0.8308,0.8308,0.8378,0.8375,0.8354,0.8347,0.8335,0.8323,0.8312,0.8302,0.8301,0.8293,0.8285,0.8264,0.8258,0.8256,0.8248,0.828,0.828,0.828,0.828,0.8347,0.8333,0.8334,0.8314,0.8309,0.8292,0.828,0.828,0.8262,0.827,0.8263,0.8269,0.8252,0.8245,0.828,0.828,0.828,0.828,0.828,0.8327,0.832,0.8314,0.8296,0.8282,0.8275,0.8259,0.8256,0.8252,0.8246,0.8237,0.8237,0.8235,0.8242,0.8242,0.8242,0.8242,0.8242,0.8242,0.8308,0.8302,0.8289,0.8276,0.8268,0.8256,0.8245,0.8236,0.8225,0.8224,0.8224,0.8223,0.8253,0.8259,0.8241,0.8241,0.8241,0.8241,0.8241,0.8274,0.8282,0.8261,0.8253,0.8237,0.8223,0.8221,0.8203,0.8195,0.8186,0.8187,0.8211,0.821,0.8212,0.8217,0.819,0.819,0.819,0.819,0.8256,0.8257,0.8235,0.8222,0.8209,0.8205,0.818,0.8172,0.8163,0.8158,0.8162,0.8169,0.8172,0.817,0.8173,0.8177,0.814,0.814,0.814,0.8234,0.8233,0.8213,0.8207,0.8195,0.8184,0.8161,0.8144,0.8136,0.8138,0.8153,0.8155,0.8167,0.8171,0.817,0.8175,0.8184,0,0]},{"header":{"parameterUnit":"m.s-1","parameterCategory":1,"la1":30.2992,"la2":30.254,"lo1":-89.0895,"lo2":-89.0443,"dy":0.0025,"dx":0.0025,"nx":19,"ny":19,"refTime":"2026-04-21T03:00:00:Z","depth":0,"parameterNumber":3,"parameterNumberName":"V-component_of_WINDS"},"data":[0,0,0,-1.8804,-1.8806,-1.8912,-1.8913,-1.904,-1.9041,0,0,0,0,0,0,0,0,0,0,0,-1.8766,-1.8767,-1.8804,-1.8806,-1.8912,-1.8913,-1.904,-1.9041,0,0,0,0,0,0,0,0,0,0,0,-1.8766,-1.8767,-1.8768,-1.8806,-1.8912,-1.8913,-1.9039,-1.8962,0,0,0,0,0,0,0,0,0,0,-1.886,-1.882,-1.8767,-1.8768,-1.8807,-1.8912,-1.8913,-1.8959,-1.8967,-1.8987,0,-1.9004,0,-1.9024,-1.9049,-1.9049,0,0,0,-1.881,-1.8813,-1.8847,-1.8768,-1.8808,-1.8912,-1.8866,-1.8964,-1.8973,-1.8998,-1.9006,-1.9011,-1.9026,-1.9049,-1.905,-1.9152,-1.9152,0,0,-1.8804,-1.8782,-1.8841,-1.8853,-1.8836,-1.8862,-1.8869,-1.8969,-1.8976,-1.9006,-1.9014,-1.9028,-1.905,-1.9051,-1.9152,-1.9152,0,0,0,-1.8785,-1.8778,-1.881,-1.8848,-1.8867,-1.8865,-1.8873,-1.8972,-1.8984,-1.9015,-1.903,-1.9051,-1.9052,-1.9152,-1.9152,-1.9143,0,0,0,-1.8781,-1.8767,-1.8807,-1.8795,-1.8865,-1.8921,-1.8872,-1.8977,-1.8989,-1.9029,-1.9051,-1.9053,-1.9151,-1.9152,-1.9143,-1.9143,0,0,0,-1.8761,-1.8764,-1.8778,-1.8793,-1.8838,-1.892,-1.8938,-1.898,-1.8998,-1.9049,-1.9054,-1.9151,-1.9152,-1.9143,-1.9142,-1.9163,0,0,0,-1.8734,-1.8769,-1.8777,-1.8822,-1.8837,-1.8914,-1.8937,-1.8996,-1.9039,-1.9052,-1.9151,-1.9152,-1.9143,-1.9142,-1.9162,-1.9175,-1.9179,0,0,-1.8766,-1.8772,-1.88,-1.8811,-1.888,-1.8899,-1.8968,-1.9028,-1.9054,-1.9118,-1.9121,-1.9143,-1.9142,-1.9163,-1.9208,-1.921,0,0,0,-1.8803,-1.8823,-1.8846,-1.8886,-1.8933,-1.8974,-1.9026,-1.9049,-1.9105,-1.9082,-1.9157,-1.9157,-1.917,-1.9177,-1.918,-1.9192,-1.9155,-1.9155,-1.9155,-1.8816,-1.8846,-1.8895,-1.8938,-1.8977,-1.9031,-1.9065,-1.9105,-1.9124,-1.9142,-1.916,-1.9184,-1.9192,-1.9193,-1.9206,-1.9171,-1.9171,-1.9171,-1.9171,-1.8865,-1.8898,-1.8923,-1.8979,-1.9011,-1.9059,-1.9112,-1.9125,-1.9173,-1.9172,-1.9185,-1.918,-1.9195,-1.9208,-1.917,-1.917,-1.917,-1.917,-1.917,-1.8876,-1.8897,-1.8924,-1.8985,-1.9029,-1.9072,-1.9117,-1.9145,-1.9172,-1.9185,-1.9207,-1.9207,-1.921,-1.9194,-1.9194,-1.9194,-1.9194,-1.9194,-1.9194,-1.8876,-1.8907,-1.8942,-1.8995,-1.9024,-1.9067,-1.9122,-1.9151,-1.9191,-1.9208,-1.9208,-1.9226,-1.9192,-1.9182,-1.9195,-1.9195,-1.9195,-1.9195,-1.9195,-1.8913,-1.8909,-1.8963,-1.8992,-1.9057,-1.9098,-1.9134,-1.9192,-1.9221,-1.9242,-1.9258,-1.9228,-1.9236,-1.9235,-1.9227,-1.9251,-1.9251,-1.9251,-1.9251,-1.8922,-1.8929,-1.899,-1.9035,-1.9083,-1.912,-1.918,-1.9223,-1.9267,-1.9286,-1.9287,-1.9279,-1.9277,-1.9287,-1.9284,-1.9277,-1.9314,-1.9314,-1.9314,-1.8946,-1.8959,-1.9004,-1.9047,-1.9099,-1.9144,-1.9201,-1.9252,-1.9301,-1.9317,-1.9302,-1.93,-1.9287,-1.9282,-1.9296,-1.9291,-1.9279,0,0]}]]